Regional Weather Roundup
Issued by NWS

Home | Current Version | Previous Version | Text Only | Print | Product List | Glossary Off
Versions: 1 2 3 4 5 6 7 8 9 10 11 12 13 14 15 16 17 18 19 20 21 22 23 24 25 26 27 28 29 30 31 32 33 34 35 36 37 38 39 40 41 42 43 44 45 46 47 48 49 50

000
ASUS43 KFSD 022310
RWRSD

WEATHER ROUNDUP FOR SOUTH DAKOTA
NATIONAL WEATHER SERVICE SIOUX FALLS SD
600 PM CDT SUN AUG 02 2015

NOTE: "FAIR" INDICATES FEW OR NO CLOUDS BELOW 12,000 FEET WITH NO
SIGNIFICANT WEATHER AND/OR OBSTRUCTIONS TO VISIBILITY.


SDZ001>005-009-010-012>017-030000-
NORTHWEST AND NORTH CENTRAL SOUTH DAKOTA

CITY           SKY/WX    TMP DP  RH WIND       PRES   REMARKS
BUFFALO          N/A     85  47  26 E13       29.93F
FAITH            N/A     86  47  25 N13       29.96S
MOBRIDGE       SUNNY     83  55  38 N9        29.90S
$$

SDZ012>016-024>037-041>051-057-063-072>074-030000-
SOUTHWEST AND SOUTH CENTRAL SOUTH DAKOTA

CITY           SKY/WX    TMP DP  RH WIND       PRES   REMARKS
RAPID CTY ARPT SUNNY     86  53  32 NE6       29.98F
PIERRE         SUNNY     87  53  31 N14       29.89S
CUSTER         MOSUNNY   75  49  39 E12       30.13S
PHILIP         SUNNY     88  53  30 NE13      29.92S
PINE RIDGE     SUNNY     87  54  32 E12       29.96F
WINNER         FAIR      88  57  34 NE6       29.91S
$$

SDZ004>011-016>023-039-040-030000-
NORTHEAST SOUTH DAKOTA

CITY           SKY/WX    TMP DP  RH WIND       PRES   REMARKS
ABERDEEN       MOSUNNY   81  56  42 N13       29.88S
WATERTOWN      SUNNY     78  57  48 N13       29.88S
BROOKINGS      SUNNY     79  57  47 N10       29.88S
SISSETON         N/A     78  57  48 N15       29.84R
$$

SDZ017-020-022-023-036>040-048>070-030000-
SOUTHEAST SOUTH DAKOTA

CITY           SKY/WX    TMP DP  RH WIND       PRES   REMARKS
SIOUX FALLS    SUNNY     83  60  45 N9        29.85R
HURON          SUNNY     82  58  43 N13       29.87R
CHAMBERLAIN    SUNNY     84  58  41 NE8       29.89S
MITCHELL       SUNNY     83  61  47 N10       29.87R
YANKTON        SUNNY     86  64  48 N8        29.83S
$$

ABBREVIATIONS USED IN REMARKS
   TC - TEMPERATURE IN CELSIUS
  WCI - WIND CHILL INDEX
   HX - HEAT INDEX
  VSB - VISIBILITY



USA.gov is the U.S. government's official web portal to all federal, state and local government web resources and services.